Location: Township of Marena
(38.1747°N, 99.6798°W)
Time: 02:07:06
(UTC+00:00)

deb Chang Zheng 4 - Pass Details

Date: 26 October 2020
Orbit: 602 x 625 km, 98.6° (Epoch: 27 November)

Event Time Altitude Azimuth Distance (km) Brightness Sun altitude
Rises 11:14:35 0° 14° (NNE) 2,862 7.2 -21.1°
Reaches altitude 10° 11:16:46 10° 16° (NNE) 1,956 6.3 -20.7°
Maximum altitude 11:21:01 79° 103° (ESE) 622 3.6 -19.8°
Drops below altitude 10° 11:25:15 10° 190° (S) 1,952 6.0 -19.0°
Sets 11:27:26 0° 192° (SSW) 2,856 6.9 -18.6°
